Date,TemperatureHighF,TemperatureAvgF,TemperatureLowF,DewpointHighF,DewpointAvgF,DewpointLowF,HumidityHigh,HumidityAvg,HumidityLow,PressureMaxIn,PressureMinIn,WindSpeedMaxMPH,WindSpeedAvgMPH,GustSpeedMaxMPH,PrecipitationSumIn
2014-1-1,36,29,25,28,24,20,88,81,71,30.38,30.09,1,0,5,0.00
2014-1-2,31,26,12,28,23,8,92,87,82,30.10,29.72,2,0,5,0.00
2014-1-3,17,11,7,9,5,2,88,77,59,30.50,29.99,2,1,8,0.00
2014-1-4,38,20,5,22,12,2,91,72,39,30.45,30.17,2,0,6,0.00
2014-1-5,48,33,15,44,28,13,95,82,64,30.20,29.43,1,0,7,0.00
2014-1-6,46,20,-4,45,15,-11,96,83,69,30.22,29.38,3,1,8,0.00
2014-1-7,4,-3,-7,-2,-9,-13,83,77,72,30.52,30.21,2,1,7,0.00
2014-1-8,24,15,1,21,9,-2,90,78,63,30.60,30.49,2,0,5,0.00
2014-1-9,35,28,21,29,23,18,92,82,66,30.66,30.41,1,0,4,0.00
2014-1-10,47,38,32,44,36,29,96,92,87,30.42,29.92,1,0,4,0.00
2014-1-11,54,46,38,51,44,33,97,90,76,29.92,29.38,5,1,10,0.00
2014-1-12,38,34,28,34,30,26,95,85,76,30.08,29.69,2,0,6,0.00
2014-1-13,57,42,28,45,36,27,95,82,43,30.05,29.75,2,0,7,0.21
2014-1-14,46,40,29,45,38,28,97,93,79,29.86,29.71,1,0,3,0.11
2014-1-15,37,34,31,35,31,24,96,87,65,30.02,29.81,1,0,5,0.01
2014-1-17,39,37,34,32,32,31,90,80,76,29.87,29.82,2,0,4,0.01
2014-1-19,32,29,26,26,24,22,87,80,72,29.88,29.76,2,0,7,0.05
2014-1-20,37,32,25,31,27,20,86,80,74,29.96,29.68,1,0,5,0.04
2014-1-21,25,17,4,20,12,-2,89,79,64,30.12,29.89,4,1,11,0.00
2014-1-22,14,6,-5,5,-1,-8,89,74,60,30.19,30.10,2,0,6,0.00
2014-1-23,17,12,7,10,6,2,88,79,61,30.54,30.11,2,1,7,0.00
2014-1-24,16,10,2,6,2,-2,83,72,59,30.58,29.93,3,1,9,0.00
2014-1-25,27,21,14,24,16,6,91,81,53,29.93,29.43,3,1,8,0.00
2014-1-26,27,16,7,23,12,2,90,81,69,29.91,29.63,2,0,7,0.00
2014-1-27,40,20,5,33,12,-3,87,69,48,30.35,29.55,4,1,14,0.00
2014-1-28,9,3,-6,-3,-6,-10,83,68,54,30.53,30.35,2,0,10,0.00
2014-1-29,18,6,-5,3,-2,-10,80,67,50,30.44,30.32,2,0,7,0.00
2014-1-30,31,17,-1,17,4,-5,88,60,31,30.44,30.04,3,0,7,0.01
2014-1-31,41,34,29,26,21,15,71,59,47,30.18,30.05,1,0,7,0.05
2014-2-1,52,44,42,37,35,33,76,69,57,29.96,29.90,1,0,3,0.10
2014-2-2,42,36,29,38,34,27,95,89,69,30.21,29.91,1,0,4,0.23
2014-2-3,29,27,26,27,25,23,92,91,87,30.23,30.12,1,0,4,0.00
2014-2-4,32,30,28,26,25,24,92,81,76,30.31,30.08,2,1,10,0.04
2014-2-5,36,30,23,34,27,19,96,90,79,30.29,29.63,3,1,7,0.01
2014-2-6,26,21,13,19,16,10,89,79,63,30.45,30.28,2,0,5,0.02
2014-2-7,26,19,11,19,10,4,88,70,52,30.44,30.35,2,0,7,0.01
2014-2-8,25,16,7,15,8,3,87,71,50,30.42,30.25,2,0,5,0.00
2014-2-9,31,23,16,28,19,12,92,84,72,30.25,29.98,2,0,8,0.00
2014-2-10,24,16,6,15,10,3,92,78,60,30.42,30.21,2,0,5,0.00
2014-2-11,24,11,-1,12,5,-4,89,77,56,30.55,30.41,2,0,7,0.00
2014-2-12,29,16,0,13,6,-4,88,68,47,30.54,30.17,3,0,7,0.00
2014-2-13,30,26,20,28,22,12,91,84,62,30.16,29.61,2,0,6,0.00
2014-2-14,36,29,20,27,24,17,94,80,66,29.77,29.56,2,0,9,0.02
2014-2-15,30,25,11,25,19,6,92,79,61,30.12,29.71,3,1,9,0.05
2014-2-16,28,20,8,24,16,4,89,83,75,30.38,30.03,1,0,4,0.01
2014-2-17,33,20,0,26,10,-3,90,69,40,30.50,29.88,4,1,11,0.03
2014-2-18,43,36,28,34,31,25,94,83,65,30.09,29.88,3,1,10,0.45
2014-2-19,50,38,26,43,33,24,96,83,59,30.18,29.74,3,0,10,0.15
2014-2-20,50,37,22,43,32,20,96,85,57,30.19,29.73,2,0,5,0.10
2014-2-21,49,42,35,47,36,22,96,77,54,29.99,29.60,3,1,8,0.29
2014-2-22,54,40,28,29,25,22,82,57,31,30.05,29.97,2,0,7,0.00
2014-2-23,47,36,30,35,30,20,90,80,60,30.08,29.99,2,0,5,0.01
2014-2-24,35,28,22,20,14,9,71,57,41,30.19,30.05,3,1,11,0.00
2014-2-25,29,25,22,20,16,12,83,69,59,30.17,30.02,2,0,7,0.01
2014-2-26,25,20,15,20,11,4,84,67,45,30.12,29.84,3,1,8,0.00
2014-2-27,26,17,6,18,7,-2,86,64,55,30.25,29.71,4,1,11,0.01
2014-2-28,26,14,1,9,2,-3,88,61,33,30.45,30.25,3,0,7,0.00
2014-3-1,47,32,15,32,20,7,84,64,35,30.25,30.12,2,0,5,0.00
2014-3-2,39,30,24,33,25,16,89,82,66,30.19,30.10,2,0,6,0.00
2014-3-3,6,5,5,0,-1,-1,77,76,74,30.46,30.45,0,0,4,0.06
2014-3-4,34,20,4,18,6,-1,82,58,30,30.47,30.23,2,0,4,0.08
2014-3-5,34,25,16,17,13,6,88,61,32,30.47,30.23,2,1,7,0.01
2014-3-6,37,28,18,20,14,8,66,58,45,30.50,30.25,4,2,11,0.01
2014-3-7,51,36,23,35,26,18,91,69,50,30.25,29.97,2,0,7,0.00
2014-3-8,53,37,26,38,31,24,95,81,52,30.09,29.96,2,0,8,0.02
2014-3-9,40,31,21,29,23,17,91,71,50,30.26,30.01,2,0,7,0.03
2014-3-10,59,42,32,38,31,24,81,66,43,30.01,29.67,2,0,7,0.00
2014-3-11,68,58,45,46,42,36,70,55,41,29.65,29.61,2,0,5,0.00
2014-3-12,51,37,20,49,32,15,95,80,68,29.79,29.09,4,1,10,0.74
2014-3-13,27,19,10,16,9,1,82,65,47,30.21,29.79,3,1,11,0.00
2014-3-14,61,44,26,36,26,15,73,52,35,30.19,29.77,3,1,8,0.01
2014-3-15,53,44,32,42,33,26,92,67,44,30.16,29.74,3,1,8,0.07
2014-3-16,32,28,25,26,15,8,82,59,41,30.29,30.10,3,1,9,0.00
2014-3-17,36,31,27,25,19,11,69,59,48,30.09,29.95,3,1,9,0.00
2014-3-18,50,38,26,34,28,22,87,67,51,30.12,30.00,4,1,11,0.00
2014-3-19,58,46,35,48,39,28,94,79,57,30.06,29.77,2,0,9,0.04
2014-3-20,46,40,35,44,32,28,93,75,60,30.05,29.82,2,1,7,0.00
2014-3-21,44,34,24,36,30,22,94,85,71,30.16,29.91,2,0,4,0.00
2014-3-22,54,45,33,40,34,28,92,67,48,30.13,29.76,3,1,8,0.00
2014-3-23,35,30,20,28,19,10,84,64,40,30.35,30.11,3,1,10,0.00
2014-3-24,34,24,13,17,12,7,87,61,39,30.38,30.16,2,0,6,0.00
2014-3-25,39,29,21,24,17,14,86,63,38,30.17,29.91,2,0,7,0.00
2014-3-26,29,24,17,22,13,6,90,65,46,30.37,30.05,3,1,9,0.00
2014-3-27,54,36,16,27,18,12,86,54,21,30.39,29.93,3,0,8,0.00
2014-3-28,62,53,39,51,41,25,90,65,34,30.14,29.84,3,1,9,0.00
2014-3-29,63,45,35,52,41,32,94,87,64,30.16,29.72,3,1,8,0.01
2014-3-30,47,38,33,37,31,25,94,79,54,30.13,29.78,4,1,10,0.01
2014-3-31,60,42,26,33,27,22,88,58,25,30.26,30.12,2,0,5,0.00
2014-4-1,77,53,32,44,33,27,86,54,19,30.14,29.84,3,0,11,0.00
2014-4-2,60,52,44,48,42,26,94,70,28,30.15,29.98,2,0,5,0.01
2014-4-3,63,52,44,51,42,33,94,71,45,30.12,29.80,2,0,7,0.00
2014-4-4,63,55,46,60,52,38,97,91,72,29.81,29.54,4,1,9,0.00
2014-4-5,46,40,30,39,31,27,88,70,55,30.23,29.81,3,1,11,0.00
2014-4-6,57,42,24,33,26,22,95,60,30,30.28,30.05,3,0,9,0.00
2014-4-7,54,48,40,47,38,25,93,71,40,30.06,29.41,3,1,12,0.00
2014-4-8,59,50,40,50,40,31,96,72,39,29.75,29.39,3,1,12,0.01
2014-4-9,59,46,35,38,31,25,89,59,34,30.08,29.75,2,1,8,0.00
2014-4-10,71,53,31,40,34,25,89,53,25,30.12,29.84,4,1,9,0.00
2014-4-11,63,55,44,55,50,37,96,84,41,30.11,29.89,1,0,5,0.01
2014-4-12,73,56,41,51,41,32,97,66,22,30.24,29.96,3,0,7,0.00
2014-4-13,83,68,56,58,52,43,77,57,34,30.00,29.81,3,1,8,0.01
2014-4-14,76,68,60,61,55,50,90,66,46,29.81,29.60,3,1,10,0.17
2014-4-15,64,42,29,57,37,20,92,83,67,30.20,29.46,2,1,9,0.19
2014-4-16,44,34,24,24,20,14,82,57,35,30.54,30.20,3,0,7,0.01
2014-4-17,63,49,37,33,26,18,54,41,28,30.53,30.37,4,1,11,0.00
2014-4-18,68,52,35,42,35,30,86,55,27,30.40,30.19,2,0,6,0.00
2014-4-19,63,53,41,43,34,21,91,55,20,30.37,30.23,3,0,9,0.00
2014-4-20,72,56,36,35,31,23,83,44,18,30.37,30.17,3,0,10,0.00
2014-4-21,79,60,38,44,37,32,83,48,19,30.17,29.80,3,0,5,0.00
2014-4-22,70,57,47,60,48,37,94,74,57,29.81,29.58,3,0,8,0.23
2014-4-23,49,43,35,39,34,25,86,71,53,30.13,29.80,3,1,8,0.00
2014-4-24,60,44,26,35,25,19,83,52,22,30.23,29.96,2,0,5,0.00
2014-4-25,70,54,43,56,42,27,94,69,33,29.96,29.65,3,0,9,0.25
2014-4-26,72,54,42,52,42,34,96,68,34,30.03,29.78,4,1,10,0.01
2014-4-27,63,48,33,40,35,31,95,65,33,30.14,30.03,2,0,7,0.00
2014-4-28,61,53,46,50,42,33,93,68,45,30.07,29.85,4,1,10,0.29
2014-4-29,56,52,50,51,48,45,91,84,72,30.02,29.81,4,2,11,0.20
2014-4-30,63,55,50,56,51,45,96,86,75,30.01,29.76,4,0,7,0.75
2014-5-1,63,56,49,56,49,39,97,80,50,29.85,29.80,2,0,5,0.02
2014-5-2,57,52,48,46,42,40,86,71,55,29.89,29.79,1,0,8,0.00
2014-5-3,64,51,42,53,45,39,94,82,48,29.87,29.74,3,0,7,0.09
2014-5-4,64,54,42,47,42,30,90,67,38,30.07,29.82,2,0,10,0.01
2014-5-5,60,49,33,43,37,31,95,67,38,30.12,29.92,1,0,4,0.00
2014-5-6,69,55,40,44,40,36,90,60,32,30.05,29.92,2,0,7,0.00
2014-5-7,74,57,44,60,48,37,93,75,58,30.17,29.99,2,0,7,0.15
2014-5-8,86,68,50,64,56,48,95,69,40,30.09,29.97,2,0,6,0.00
2014-5-9,85,72,55,64,58,53,96,66,41,30.04,29.82,2,0,9,0.00
2014-5-10,72,64,58,63,60,56,96,86,68,29.99,29.88,1,0,5,0.40
2014-5-11,75,63,54,62,57,52,97,81,51,30.16,29.99,2,0,8,0.00
2014-5-12,79,66,56,69,62,54,96,89,64,30.11,30.05,2,0,5,0.14
2014-5-13,88,74,60,70,65,59,97,76,48,30.13,29.98,2,0,7,0.57
2014-5-14,82,72,63,69,64,62,95,78,56,30.10,29.92,3,0,8,0.05
2014-5-15,70,65,52,65,60,51,95,86,75,29.98,29.84,2,0,11,1.04
2014-5-16,58,51,46,51,45,41,96,82,56,30.01,29.90,2,0,5,0.19
2014-5-17,58,49,45,48,45,42,95,85,56,30.24,30.01,2,0,7,0.17
2014-5-18,63,50,39,45,40,33,96,71,35,30.32,30.23,2,0,5,0.00
2014-5-19,68,46,36,47,39,34,96,79,35,30.35,30.28,2,0,4,0.00
2014-5-20,75,68,58,61,56,45,92,69,38,30.04,29.97,2,0,7,0.00
2014-5-21,75,66,55,66,60,54,97,84,63,29.98,29.83,1,0,4,0.00
2014-5-22,80,68,53,67,59,45,97,76,43,29.99,29.82,3,0,10,0.00
2014-5-23,66,56,46,54,48,45,97,76,52,30.14,29.96,2,0,9,0.00
2014-5-24,74,61,48,56,50,45,93,70,43,30.19,30.09,2,0,7,0.00
2014-5-25,78,62,45,56,50,44,96,68,35,30.21,30.09,2,0,6,0.00
2014-5-26,84,67,49,63,55,48,96,69,35,30.16,29.98,2,0,8,0.00
2014-5-27,85,69,60,73,64,56,96,85,58,30.00,29.86,3,0,6,1.46
2014-5-28,80,69,63,71,65,62,97,88,65,30.01,29.88,1,0,4,0.12
2014-5-29,74,67,61,67,64,60,97,90,73,30.06,29.98,1,0,4,0.00
2014-5-30,76,65,57,60,57,52,94,77,45,30.17,30.06,1,0,6,0.00
2014-5-31,78,65,52,59,53,48,96,69,39,30.23,30.15,2,0,7,0.00
2014-6-1,83,67,49,65,55,47,95,67,43,30.25,30.09,3,0,6,0.00
2014-6-2,80,70,60,71,63,57,90,79,68,30.14,29.99,1,0,4,0.00
2014-6-3,85,73,64,72,67,62,95,82,57,29.99,29.82,1,0,8,0.19
2014-6-4,75,66,56,66,60,55,97,84,61,29.92,29.68,1,0,4,0.25
2014-6-5,71,62,51,59,54,48,96,77,52,29.94,29.68,2,0,8,0.08
2014-6-6,74,60,46,57,51,44,96,73,46,30.03,29.92,2,0,7,0.00
2014-6-7,80,65,50,59,54,48,96,72,41,30.08,29.92,2,0,4,0.00
2014-6-8,80,67,55,71,62,54,96,85,63,29.92,29.73,2,0,9,0.45
2014-6-9,69,63,60,64,60,58,95,91,79,29.95,29.87,1,0,2,0.00
2014-6-10,76,66,57,67,62,56,97,88,64,29.96,29.90,2,0,5,0.00
2014-6-11,83,70,62,72,65,61,97,85,58,29.92,29.77,4,0,6,0.47
2014-6-12,80,70,65,72,67,64,97,91,70,29.86,29.75,4,0,5,1.28
2014-6-13,82,68,58,71,65,57,97,92,64,29.94,29.75,3,0,6,0.66
2014-6-14,71,60,51,58,54,50,97,80,55,30.13,29.94,3,0,7,0.00
2014-6-15,80,64,49,61,54,48,97,74,39,30.18,30.05,2,0,5,0.00
2014-6-16,87,69,56,74,63,54,96,83,60,30.13,30.05,3,0,5,0.00
2014-6-17,89,76,64,76,68,62,97,79,57,30.10,29.91,3,0,7,0.00
2014-6-18,85,76,67,75,70,65,96,83,59,30.06,29.94,3,0,8,0.43
2014-6-19,75,69,64,71,67,62,97,93,83,30.07,29.95,1,0,4,0.15
2014-6-20,82,69,62,70,65,60,97,87,58,30.07,29.89,2,0,4,0.01
2014-6-21,73,67,63,67,64,62,96,90,74,29.92,29.85,6,0,6,0.41
2014-6-22,80,68,60,69,64,59,97,89,59,29.97,29.89,2,0,5,0.06
2014-6-23,85,72,59,73,66,58,98,81,59,30.01,29.92,4,0,8,0.00
2014-6-24,87,75,66,75,69,65,97,84,62,30.00,29.87,4,0,11,0.30
2014-6-25,77,71,66,74,69,65,97,93,84,29.93,29.84,3,0,5,0.35
2014-6-26,78,69,62,69,64,61,97,85,62,30.03,29.92,2,0,4,0.00
2014-6-27,84,72,60,70,65,59,97,80,53,30.10,30.03,2,0,4,0.00
2014-6-28,88,76,64,73,68,63,96,78,51,30.17,30.09,5,0,5,0.56
2014-6-29,83,73,66,74,70,65,97,89,70,30.15,30.00,3,0,6,0.15
2014-6-30,86,75,68,76,71,67,98,88,65,30.04,29.85,1,0,5,0.00
2014-7-1,88,78,68,77,72,67,97,84,63,29.89,29.76,7,0,7,0.00
2014-7-2,87,77,70,74,70,67,95,80,59,29.90,29.77,3,0,5,0.00
2014-7-3,82,72,64,74,66,58,96,80,58,30.06,29.89,4,0,9,0.02
2014-7-4,74,65,55,58,54,47,94,69,47,30.27,30.06,7,0,11,0.00
2014-7-5,78,64,48,59,52,46,96,69,37,30.32,30.15,4,0,5,0.00
2014-7-6,81,66,53,66,59,52,96,80,46,30.16,29.91,3,0,7,0.01
2014-7-7,85,74,66,72,67,63,93,79,59,29.91,29.74,3,0,7,0.06
2014-7-8,82,73,67,73,69,65,95,87,70,29.81,29.63,5,0,7,0.10
2014-7-9,85,73,64,69,64,60,97,76,48,29.98,29.80,9,0,9,0.00
2014-7-10,81,71,61,67,62,59,95,75,52,30.12,29.98,2,0,4,0.00
2014-7-11,84,71,59,69,62,57,96,77,45,30.19,30.11,3,0,5,0.00
2014-7-12,85,73,61,71,65,60,96,77,50,30.17,30.03,2,0,7,0.00
2014-7-13,86,74,67,74,69,64,96,85,64,30.03,29.85,2,0,7,0.17
2014-7-14,79,72,68,74,70,67,97,93,79,29.92,29.79,1,0,4,0.10
2014-7-15,81,71,61,69,64,55,97,81,53,29.84,29.72,1,0,8,0.01
2014-7-16,75,65,53,59,56,51,95,74,49,30.00,29.84,2,0,5,0.00
2014-7-17,74,63,51,61,55,49,96,77,51,30.16,29.99,3,0,7,0.00
2014-7-18,78,66,52,64,58,50,97,77,50,30.24,30.15,2,0,6,0.07
2014-7-19,68,65,63,65,63,62,96,94,87,30.19,30.08,2,0,6,0.87
2014-7-20,79,70,63,71,65,61,96,85,64,30.10,30.01,1,0,3,0.00
2014-7-21,84,73,64,74,68,63,96,86,64,30.13,30.05,2,0,5,0.00
2014-7-22,86,76,65,76,70,64,97,84,61,30.13,29.98,2,0,3,0.00
2014-7-23,84,75,67,76,69,62,97,84,63,30.00,29.86,2,0,8,0.01
2014-7-24,76,68,60,62,59,54,91,73,50,30.04,29.93,2,0,5,0.00
2014-7-25,79,65,50,59,54,47,96,72,34,30.11,29.98,3,0,6,0.00
2014-7-26,83,71,61,69,63,58,95,78,50,30.00,29.84,4,0,6,0.30
2014-7-27,85,72,67,76,69,66,96,91,69,29.87,29.60,2,0,5,0.72
2014-7-28,71,64,56,67,61,54,97,91,79,29.93,29.57,2,0,8,0.12
2014-7-29,69,59,51,59,54,49,97,85,56,30.04,29.92,1,0,4,0.00
2014-7-30,74,61,50,65,57,48,97,86,65,30.07,29.99,6,0,6,0.00
2014-7-31,79,66,57,68,61,56,97,86,60,30.10,30.03,4,0,5,0.00
2014-8-1,83,70,57,68,63,56,97,79,50,30.15,30.06,4,0,6,0.00
2014-8-2,82,70,64,68,64,61,95,81,56,30.12,30.00,2,0,5,0.34
2014-8-3,75,69,62,69,64,60,97,87,68,30.11,30.04,1,0,4,0.51
2014-8-4,81,67,58,70,62,56,97,87,54,30.15,30.05,2,0,3,0.01
2014-8-5,84,69,59,72,63,58,97,83,55,30.08,29.98,2,0,5,0.00
2014-8-6,78,69,60,69,63,56,96,83,62,30.00,29.92,1,0,4,0.01
2014-8-7,79,66,53,64,58,52,97,79,50,30.09,29.99,2,0,5,0.00
2014-8-8,79,66,54,63,57,53,97,76,46,30.15,30.05,4,0,8,0.00
2014-8-9,81,69,56,69,62,54,96,79,57,30.10,30.02,4,0,6,0.00
2014-8-10,84,73,60,68,64,58,97,75,51,30.09,29.99,5,0,6,0.00
2014-8-11,71,67,64,66,63,60,94,87,77,30.04,29.84,7,0,10,0.21
2014-8-12,79,69,64,74,67,62,97,93,79,29.85,29.68,3,0,3,1.11
2014-8-13,72,64,54,64,61,52,97,88,66,29.96,29.79,3,0,6,0.02
2014-8-14,75,62,51,62,53,46,97,75,43,29.99,29.91,3,0,9,0.00
2014-8-15,72,59,47,58,52,46,97,78,50,30.04,29.98,2,0,8,0.00
2014-8-16,78,62,46,61,53,44,97,77,41,30.04,29.93,3,0,5,0.00
2014-8-17,78,70,65,69,65,61,94,85,65,29.98,29.91,4,0,4,0.01
2014-8-18,82,71,63,71,65,61,94,82,63,29.94,29.77,4,0,4,0.00
2014-8-19,86,73,65,72,66,63,94,81,51,29.85,29.78,2,0,4,0.00
2014-8-20,81,70,65,72,67,63,96,90,67,29.97,29.84,1,0,6,1.22
2014-8-21,79,70,62,73,67,61,97,90,79,30.04,29.96,1,0,6,0.00
2014-8-22,80,73,69,74,70,67,96,91,73,30.02,29.90,2,0,4,0.23
2014-8-23,84,74,66,73,69,64,97,86,59,30.04,29.92,2,0,3,0.00
2014-8-24,80,71,65,68,64,60,94,80,60,30.11,30.03,5,0,6,0.00
2014-8-25,80,68,57,65,61,56,97,79,51,30.17,30.09,2,0,6,0.00
2014-8-26,83,69,55,69,62,54,97,81,55,30.18,30.03,3,0,5,0.00
2014-8-27,84,73,63,76,68,61,97,85,68,30.08,29.94,2,0,6,0.01
2014-8-28,75,65,55,62,57,53,95,76,51,30.14,30.01,2,0,10,0.00
2014-8-29,78,63,49,61,55,48,97,77,40,30.19,30.08,2,0,4,0.00
2014-8-30,87,71,58,75,66,57,97,84,63,30.12,29.99,2,0,5,0.00
2014-8-31,75,71,69,73,70,67,97,95,90,30.05,29.98,1,0,4,0.97
2014-9-1,83,73,70,76,71,69,97,93,74,30.00,29.90,1,0,4,0.09
2014-9-2,83,74,67,75,71,66,98,88,72,29.97,29.82,1,0,5,0.00
2014-9-3,82,70,61,69,65,60,98,86,58,30.10,29.94,1,0,3,0.00
2014-9-4,86,72,59,72,66,58,97,83,56,30.12,30.03,2,0,4,0.00
2014-9-5,87,73,64,76,69,63,98,87,62,30.14,29.97,2,0,4,0.00
2014-9-6,84,71,61,74,67,59,97,86,64,30.08,29.91,2,0,8,0.02
2014-9-7,74,62,50,59,55,49,97,79,52,30.21,30.08,5,0,7,0.00
2014-9-8,78,65,50,61,56,49,97,77,50,30.21,30.12,4,1,10,0.01
2014-9-9,79,70,62,69,62,57,88,76,60,30.16,30.01,4,0,5,0.00
2014-9-10,84,72,61,71,66,59,96,80,60,30.04,29.79,8,0,8,0.00
2014-9-11,76,68,57,69,64,54,95,85,70,30.11,29.75,8,0,8,0.09
2014-9-12,63,58,53,55,53,51,94,83,71,30.21,30.11,2,0,3,0.00
2014-9-13,68,57,46,59,52,44,95,85,60,30.32,30.04,2,0,5,0.05
2014-9-14,64,52,40,51,46,39,97,82,52,30.36,30.21,2,0,5,0.00
2014-9-15,69,55,41,56,49,40,97,81,48,30.27,30.05,2,0,5,0.00
2014-9-16,67,58,50,56,54,49,96,85,62,30.12,30.03,1,0,3,0.11
2014-9-17,70,57,46,56,51,45,97,83,52,30.08,29.96,1,0,3,0.00
2014-9-18,70,58,48,54,50,46,97,78,45,30.16,29.99,3,0,5,0.00
2014-9-19,74,60,46,60,53,44,97,78,53,30.24,30.13,2,0,5,0.00
2014-9-20,80,67,55,66,60,53,95,80,59,30.16,29.93,2,0,7,0.00
2014-9-21,78,67,60,70,61,50,94,81,46,29.94,29.61,3,0,9,0.10
2014-9-22,60,56,45,54,48,42,91,75,59,30.29,29.85,2,0,7,0.01
2014-9-23,68,52,38,52,45,37,96,79,46,30.40,30.29,3,0,4,0.00
2014-9-24,76,60,44,54,48,42,97,71,39,30.46,30.38,6,1,11,0.00
2014-9-25,74,62,54,61,56,51,94,80,58,30.39,30.23,2,0,5,0.00
2014-9-26,77,62,50,61,54,49,97,78,44,30.30,30.20,3,0,4,0.00
2014-9-27,78,61,48,60,54,46,97,79,46,30.29,30.17,3,0,4,0.00
2014-9-28,74,61,48,62,56,47,97,83,58,30.20,30.05,2,0,5,0.00
2014-9-29,78,64,52,64,58,51,97,82,57,30.05,29.89,2,0,5,0.00
2014-9-30,76,61,51,63,57,50,97,85,57,29.95,29.87,3,0,7,0.06
2014-10-1,66,58,54,61,56,53,97,92,77,30.06,29.94,1,0,5,0.00
2014-10-2,76,61,50,61,55,49,97,82,51,30.13,29.98,1,0,5,0.00
2014-10-3,78,64,54,65,60,52,96,87,58,29.98,29.62,3,0,11,0.31
2014-10-4,60,49,43,59,44,35,96,82,66,29.83,29.64,2,0,8,0.08
2014-10-5,52,46,38,41,38,36,93,74,55,29.92,29.81,2,0,5,0.00
2014-10-6,70,56,44,57,49,39,94,80,53,29.92,29.78,7,0,8,0.11
2014-10-7,69,58,50,57,53,48,96,86,56,29.94,29.73,6,0,8,0.34
2014-10-8,66,56,48,56,49,44,97,81,50,30.05,29.81,5,0,9,0.01
2014-10-9,64,50,38,49,43,37,97,79,49,30.13,30.04,5,0,5,0.00
2014-10-10,60,51,42,52,47,40,97,87,67,30.13,30.05,2,0,4,0.00
2014-10-11,62,52,44,48,43,39,92,73,48,30.23,30.02,2,0,6,0.02
2014-10-12,66,51,35,52,44,33,96,78,54,30.24,30.13,3,0,7,0.00
2014-10-13,73,63,55,67,58,51,93,86,75,30.14,30.03,1,0,5,0.06
2014-10-14,85,72,61,67,62,57,89,73,45,30.04,29.70,10,1,12,0.07
2014-10-15,70,58,53,64,56,52,96,91,77,29.86,29.73,3,0,4,0.75
2014-10-16,64,56,51,55,53,50,97,91,71,29.77,29.71,1,0,2,0.02
2014-10-17,69,60,53,56,54,52,96,81,58,29.77,29.59,3,0,8,0.01
2014-10-18,62,52,46,53,46,42,92,80,68,29.98,29.63,2,1,10,0.08
2014-10-19,54,45,38,43,38,35,92,79,50,30.18,29.98,2,0,11,0.01
2014-10-20,58,48,38,48,42,36,94,82,61,30.10,29.88,2,0,6,0.01
2014-10-21,57,51,48,52,48,46,96,91,72,30.03,29.85,1,0,6,0.16
2014-10-22,51,49,47,47,45,42,95,86,79,30.20,30.01,1,0,6,0.01
2014-10-23,64,52,44,47,44,42,92,76,53,30.16,30.04,3,0,7,0.00
2014-10-24,60,46,37,47,41,36,97,84,54,30.14,30.00,2,0,4,0.00
2014-10-25,67,54,40,54,48,38,96,81,58,30.04,29.74,2,0,5,0.00
2014-10-26,64,51,38,44,37,33,86,62,35,29.99,29.77,5,0,6,0.00
2014-10-27,71,50,30,52,39,29,96,72,29,30.09,29.91,4,0,6,0.00
2014-10-28,78,66,54,61,56,49,91,72,47,29.95,29.82,3,0,9,0.00
2014-10-29,61,54,42,50,43,36,88,68,47,30.05,29.93,2,0,7,0.00
2014-10-30,52,44,35,42,38,33,95,80,62,30.13,30.05,7,0,7,0.00
2014-10-31,49,44,42,42,41,39,95,87,69,30.06,29.88,0,0,3,0.17
2014-11-1,45,41,36,41,38,30,95,87,76,30.19,29.90,2,1,9,0.04
2014-11-2,47,38,28,30,27,23,90,67,42,30.38,30.18,3,1,7,0.00
2014-11-3,56,39,26,34,29,24,95,70,31,30.42,30.22,2,0,7,0.00
2014-11-4,68,53,36,40,32,29,79,49,24,30.26,30.02,3,0,7,0.00
2014-11-5,60,52,45,52,45,40,94,79,49,30.20,30.06,1,0,3,0.04
2014-11-6,54,47,45,50,45,43,95,94,85,30.06,29.69,2,0,4,0.76
2014-11-7,45,39,28,44,35,26,95,84,65,30.09,29.81,3,0,7,0.04
2014-11-8,52,40,26,40,32,25,96,76,53,30.08,29.83,3,0,8,0.00
2014-11-9,52,44,40,39,36,33,88,74,50,30.03,29.94,2,0,5,0.00
2014-11-10,65,50,36,41,38,33,91,66,35,30.10,29.92,4,0,5,0.00
2014-11-11,71,53,35,43,39,33,94,62,33,29.96,29.80,3,0,7,0.00
2014-11-12,58,43,37,54,35,27,91,74,54,30.22,29.82,3,0,7,0.07
2014-11-13,37,34,29,30,27,23,85,75,69,30.20,30.12,2,0,8,0.00
2014-11-14,36,30,26,23,22,20,81,70,53,30.37,30.19,1,0,6,0.01
2014-11-15,39,30,24,23,21,18,86,70,45,30.47,30.31,2,0,5,0.00
2014-11-16,41,35,26,35,29,21,94,78,66,30.32,29.94,1,0,4,0.14
2014-11-17,41,35,21,40,32,13,96,90,71,29.96,29.59,3,0,7,0.46
2014-11-18,23,19,16,16,10,7,86,69,56,30.30,29.95,2,1,10,0.00
2014-11-19,37,26,13,28,17,9,86,70,52,30.32,29.95,3,1,10,0.00
2014-11-20,37,29,22,29,19,14,82,66,51,30.20,29.96,2,0,9,0.00
2014-11-21,29,22,15,17,14,12,89,75,51,30.57,30.20,1,0,7,0.00
2014-11-22,45,29,12,37,24,10,93,84,71,30.52,30.16,0,0,1,0.02
2014-11-23,65,53,42,52,42,32,91,67,52,30.17,29.51,3,0,10,0.13
2014-11-24,70,59,41,54,48,34,92,69,45,29.87,29.38,6,1,19,0.01
2014-11-25,53,40,29,35,31,26,89,74,48,30.22,29.87,4,0,7,0.00
2014-11-26,34,32,29,32,30,26,95,90,80,30.23,30.05,0,0,2,0.07
2014-11-27,39,33,30,33,30,26,96,89,73,30.26,30.03,1,0,7,0.09
2014-11-28,33,29,26,27,22,17,89,76,57,30.40,30.25,2,0,7,0.02
2014-11-29,50,41,28,42,29,21,78,64,45,30.26,29.98,2,0,8,0.00
2014-11-30,63,57,50,52,49,42,78,73,67,30.03,29.92,3,0,9,0.00
2014-12-1,60,43,30,54,40,25,95,87,74,30.56,30.03,5,0,8,0.30
2014-12-2,42,35,28,41,31,22,96,87,78,30.55,30.16,1,0,5,0.16
2014-12-3,44,38,28,43,36,27,96,91,78,30.37,30.12,1,0,6,0.01
2014-12-4,37,30,26,30,27,24,96,87,66,30.50,30.37,1,0,3,0.00
2014-12-5,44,39,30,43,37,26,96,92,81,30.41,30.16,0,0,2,0.43
2014-12-6,44,41,35,43,39,29,97,92,76,30.48,30.07,2,0,9,0.78
2014-12-7,42,34,26,30,25,20,93,73,51,30.65,30.47,3,0,6,0.00
2014-12-8,40,34,26,31,24,16,86,67,42,30.54,30.21,2,0,5,0.00
2014-12-9,46,39,30,37,34,28,96,82,69,30.22,30.04,1,0,5,0.00
2014-12-10,39,34,31,35,30,26,91,85,78,30.08,29.98,2,1,11,0.03
2014-12-11,33,31,28,26,22,15,84,71,48,30.09,29.97,2,1,7,0.00
2014-12-12,34,31,27,28,26,24,89,80,74,30.26,30.09,1,0,7,0.00
2014-12-13,36,32,29,35,29,26,95,90,85,30.28,30.11,1,0,4,0.00
2014-12-14,43,41,37,42,40,35,96,96,94,30.13,30.07,0,0,2,0.06
2014-12-15,48,42,33,44,40,32,97,94,84,30.14,29.93,1,0,3,0.01
2014-12-16,53,43,31,51,41,30,97,94,89,29.95,29.75,1,0,3,0.33
2014-12-17,43,37,30,41,32,23,94,83,74,30.17,29.95,2,0,8,0.00
2014-12-18,31,30,29,27,24,22,86,80,75,30.26,30.17,1,0,6,0.00
2014-12-19,33,31,29,29,26,23,92,82,72,30.33,30.20,0,0,4,0.00
2014-12-20,34,29,26,24,22,21,86,76,62,30.35,30.27,2,0,3,0.01
2014-12-21,35,30,24,26,24,22,91,79,67,30.39,30.25,1,0,3,0.00
2014-12-22,49,31,21,36,26,20,95,72,60,30.25,29.98,2,0,5,0.00
2014-12-23,56,47,40,51,44,36,95,88,77,30.01,29.86,1,0,4,0.19
2014-12-24,60,53,43,54,50,40,96,89,80,29.86,29.34,2,0,8,0.23
2014-12-25,43,40,38,40,35,32,90,82,74,30.26,29.64,2,0,8,0.01
2014-12-26,50,40,33,38,34,30,90,79,60,30.35,30.21,2,0,5,0.00
2014-12-27,58,43,29,40,34,28,96,74,48,30.30,29.99,5,0,5,0.00
2014-12-28,50,36,33,44,34,31,95,82,55,30.20,29.94,2,0,4,0.36
2014-12-29,39,33,27,32,26,19,95,77,62,30.38,30.18,1,0,7,0.00
2014-12-30,35,23,23,20,15,12,82,54,48,30.51,30.37,1,0,6,0.00
2014-12-31,29,22,20,14,10,8,71,55,44,30.51,30.27,1,0,7,0.00
2015-1-1,37,23,20,22,13,9,67,48,47,30.28,30.06,2,0,11,0.00
2015-1-2,40,30,24,24,22,20,87,72,53,30.44,30.18,1,0,5,0.00